Location: Baia de Cri?
(46.1667°N, 22.7167°E)
Time: 09:06:07
(UTC+00:00)

Cosmos 1943 Rocket - Pass Details

Date: 15 January 2026
Orbit: 812 x 842 km, 71.0° (Epoch: 9 February)

Event Time Altitude Azimuth Distance (km) Brightness Sun altitude
Rises 03:36:48 0° 186° (S) 3,324 5.3 -25.6°
Reaches altitude 10° 03:39:17 10° 181° (S) 2,394 4.6 -25.1°
Maximum altitude 03:44:30 47° 109° (ESE) 1,065 3.1 -24.2°
Drops below altitude 10° 03:49:45 10° 37° (NE) 2,407 4.9 -23.3°
Sets 03:52:15 0° 31° (NNE) 3,344 5.6 -22.9°
